Time,TemperatureF,DewpointF,PressureIn,WindDirection,WindDirectionDegrees,WindSpeedMPH,WindSpeedGustMPH,Humidity,HourlyPrecipIn,Conditions,Clouds,dailyrainin,SoftwareType,DateUTC
2013-05-25 00:02:00,51.0,48.0,30.22,NW,309,0.0,-999.0,88,-99.99,,,-99.99,,2013-05-25 05:02:00,
2013-05-25 00:12:00,51.0,48.0,30.22,NW,309,0.0,-999.0,88,-99.99,,,-99.99,,2013-05-25 05:12:00,
2013-05-25 00:22:00,51.0,48.0,30.23,NW,309,0.0,-999.0,88,-99.99,,,-99.99,,2013-05-25 05:22:00,
2013-05-25 00:32:00,50.0,47.0,30.23,NW,309,0.0,-999.0,89,-99.99,,,-99.99,,2013-05-25 05:32:00,
2013-05-25 00:42:00,50.0,47.0,30.23,NW,309,0.0,-999.0,89,-99.99,,,-99.99,,2013-05-25 05:42:00,
2013-05-25 00:52:00,50.0,47.0,30.22,NW,310,0.0,-999.0,90,-99.99,,,-99.99,,2013-05-25 05:52:00,
2013-05-25 01:02:00,49.0,46.0,30.22,NW,311,0.0,-999.0,90,-99.99,,,-99.99,,2013-05-25 06:02:00,
2013-05-25 01:12:00,49.0,46.0,30.22,NW,311,0.0,-999.0,91,-99.99,,,-99.99,,2013-05-25 06:12:00,
2013-05-25 01:21:00,49.0,46.0,30.22,NW,311,0.0,-999.0,91,-99.99,,,-99.99,,2013-05-25 06:21:00,
2013-05-25 01:32:00,49.0,46.0,30.22,NW,311,0.0,-999.0,91,-99.99,,,-99.99,,2013-05-25 06:32:00,
2013-05-25 01:42:00,49.0,46.0,30.22,NW,311,0.0,-999.0,91,-99.99,,,-99.99,,2013-05-25 06:42:00,
2013-05-25 01:52:00,48.0,45.0,30.22,NW,311,0.0,-999.0,91,-99.99,,,-99.99,,2013-05-25 06:52:00,
2013-05-25 02:01:00,48.0,45.0,30.22,NW,311,0.0,-999.0,91,-99.99,,,-99.99,,2013-05-25 07:01:00,
2013-05-25 02:11:00,48.0,45.0,30.22,NW,311,0.0,-999.0,91,-99.99,,,-99.99,,2013-05-25 07:11:00,
2013-05-25 02:21:00,48.0,46.0,30.22,NW,311,0.0,-999.0,92,-99.99,,,-99.99,,2013-05-25 07:21:00,
2013-05-25 02:32:00,48.0,46.0,30.22,NW,311,0.0,-999.0,92,-99.99,,,-99.99,,2013-05-25 07:32:00,
2013-05-25 02:42:00,48.0,46.0,30.22,NW,311,0.0,-999.0,92,-99.99,,,-99.99,,2013-05-25 07:42:00,
2013-05-25 02:52:00,48.0,47.0,30.22,NW,311,0.0,-999.0,96,-99.99,,,-99.99,,2013-05-25 07:52:00,
2013-05-25 03:02:00,48.0,46.0,30.21,NW,311,0.0,-999.0,92,-99.99,,,-99.99,,2013-05-25 08:02:00,
2013-05-25 03:11:00,48.0,46.0,30.21,NW,311,0.0,-999.0,92,-99.99,,,-99.99,,2013-05-25 08:11:00,
2013-05-25 03:22:00,48.0,46.0,30.21,NW,311,0.0,-999.0,92,-99.99,,,-99.99,,2013-05-25 08:22:00,
2013-05-25 03:32:00,48.0,46.0,30.21,NW,311,0.0,-999.0,92,-99.99,,,-99.99,,2013-05-25 08:32:00,
2013-05-25 03:42:00,48.0,46.0,30.21,NW,311,0.0,-999.0,92,-99.99,,,-99.99,,2013-05-25 08:42:00,
2013-05-25 03:51:00,48.0,46.0,30.20,NW,311,0.0,-999.0,92,-99.99,,,-99.99,,2013-05-25 08:51:00,
2013-05-25 04:02:00,48.0,46.0,30.19,NW,311,0.0,-999.0,93,-99.99,,,-99.99,,2013-05-25 09:02:00,
2013-05-25 04:11:00,48.0,46.0,30.19,NW,311,0.0,-999.0,93,-99.99,,,-99.99,,2013-05-25 09:11:00,
2013-05-25 04:21:00,48.0,46.0,30.21,NW,311,0.0,-999.0,93,-99.99,,,-99.99,,2013-05-25 09:21:00,
2013-05-25 04:33:00,47.0,45.0,30.21,NW,311,0.0,-999.0,93,-99.99,,,-99.99,,2013-05-25 09:33:00,
2013-05-25 04:42:00,47.0,45.0,30.21,NW,311,0.0,-999.0,93,-99.99,,,-99.99,,2013-05-25 09:42:00,
2013-05-25 04:52:00,48.0,46.0,30.21,NW,311,0.0,-999.0,93,-99.99,,,-99.99,,2013-05-25 09:52:00,
2013-05-25 05:03:00,47.0,45.0,30.22,NW,311,0.0,-999.0,93,-99.99,,,-99.99,,2013-05-25 10:03:00,
2013-05-25 05:12:00,47.0,45.0,30.22,NW,311,0.0,-999.0,93,-99.99,,,-99.99,,2013-05-25 10:12:00,
2013-05-25 05:22:00,47.0,45.0,30.22,NW,311,0.0,-999.0,93,-99.99,,,-99.99,,2013-05-25 10:22:00,
2013-05-25 05:33:00,47.0,45.0,30.22,NW,311,0.0,-999.0,93,-99.99,,,-99.99,,2013-05-25 10:33:00,
2013-05-25 05:42:00,47.0,45.0,30.22,NW,311,0.0,-999.0,93,-99.99,,,-99.99,,2013-05-25 10:42:00,
2013-05-25 05:52:00,47.0,45.0,30.22,NW,311,0.0,-999.0,93,-99.99,,,-99.99,,2013-05-25 10:52:00,
2013-05-25 06:02:00,47.0,45.0,30.23,NW,311,0.0,-999.0,93,-99.99,,,-99.99,,2013-05-25 11:02:00,
2013-05-25 06:12:00,47.0,45.0,30.23,NW,311,0.0,-999.0,93,-99.99,,,-99.99,,2013-05-25 11:12:00,
2013-05-25 06:21:00,47.0,45.0,30.23,NW,311,0.0,-999.0,93,-99.99,,,-99.99,,2013-05-25 11:21:00,
2013-05-25 06:32:00,48.0,46.0,30.23,NW,311,0.0,-999.0,93,-99.99,,,-99.99,,2013-05-25 11:32:00,
2013-05-25 06:41:00,48.0,46.0,30.23,NW,311,0.0,-999.0,93,-99.99,,,-99.99,,2013-05-25 11:41:00,
2013-05-25 06:52:00,48.0,46.0,30.23,NW,311,0.0,-999.0,93,-99.99,,,-99.99,,2013-05-25 11:52:00,
2013-05-25 07:01:00,48.0,46.0,30.23,NNW,336,0.0,-999.0,94,-99.99,,,-99.99,,2013-05-25 12:01:00,
2013-05-25 07:12:00,48.0,46.0,30.23,NNW,336,0.0,-999.0,94,-99.99,,,-99.99,,2013-05-25 12:12:00,
2013-05-25 07:22:00,49.0,47.0,30.23,NNW,336,0.0,-999.0,93,-99.99,,,-99.99,,2013-05-25 12:22:00,
2013-05-25 07:32:00,50.0,48.0,30.23,NW,325,0.0,-999.0,92,-99.99,,,-99.99,,2013-05-25 12:32:00,
2013-05-25 07:42:00,50.0,48.0,30.23,NW,325,0.0,-999.0,92,-99.99,,,-99.99,,2013-05-25 12:42:00,
2013-05-25 07:52:00,51.0,48.0,30.24,NW,325,0.0,-999.0,90,-99.99,,,-99.99,,2013-05-25 12:52:00,
2013-05-25 08:02:00,53.0,50.0,30.24,NW,325,0.0,-999.0,88,-99.99,,,-99.99,,2013-05-25 13:02:00,
2013-05-25 08:11:00,53.0,50.0,30.24,NW,325,0.0,-999.0,88,-99.99,,,-99.99,,2013-05-25 13:11:00,
2013-05-25 08:21:00,55.0,50.0,30.24,NW,325,0.0,-999.0,83,-99.99,,,-99.99,,2013-05-25 13:21:00,
2013-05-25 08:32:00,56.0,51.0,30.24,NW,325,0.0,-999.0,83,-99.99,,,-99.99,,2013-05-25 13:32:00,
2013-05-25 08:42:00,56.0,51.0,30.24,NW,325,0.0,-999.0,83,-99.99,,,-99.99,,2013-05-25 13:42:00,
2013-05-25 08:52:00,57.0,51.0,30.25,NW,325,0.0,-999.0,81,-99.99,,,-99.99,,2013-05-25 13:52:00,
2013-05-25 09:02:00,60.0,53.0,30.24,NW,325,0.0,-999.0,79,-99.99,,,-99.99,,2013-05-25 14:02:00,
2013-05-25 09:11:00,60.0,53.0,30.24,NW,325,0.0,-999.0,79,-99.99,,,-99.99,,2013-05-25 14:11:00,
2013-05-25 09:22:00,61.0,52.0,30.24,NNE,25,0.0,-999.0,72,-99.99,,,-99.99,,2013-05-25 14:22:00,
2013-05-25 09:32:00,64.0,54.0,30.23,NE,34,0.0,-999.0,71,-99.99,,,-99.99,,2013-05-25 14:32:00,
2013-05-25 09:42:00,64.0,54.0,30.23,NE,34,0.0,-999.0,71,-99.99,,,-99.99,,2013-05-25 14:42:00,
2013-05-25 09:52:00,65.0,53.0,30.22,NE,34,2.0,-999.0,66,-99.99,,,-99.99,,2013-05-25 14:52:00,
2013-05-25 10:01:00,66.0,54.0,30.22,NE,40,1.0,-999.0,65,-99.99,,,-99.99,,2013-05-25 15:01:00,
2013-05-25 10:11:00,66.0,54.0,30.22,NE,40,1.0,-999.0,65,-99.99,,,-99.99,,2013-05-25 15:11:00,
2013-05-25 10:22:00,67.0,54.0,30.21,NE,38,2.0,-999.0,64,-99.99,,,-99.99,,2013-05-25 15:22:00,
2013-05-25 10:33:00,68.0,54.0,30.20,NW,323,3.0,-999.0,60,-99.99,,,-99.99,,2013-05-25 15:33:00,
2013-05-25 10:43:00,68.0,54.0,30.20,NW,323,3.0,-999.0,60,-99.99,,,-99.99,,2013-05-25 15:43:00,
2013-05-25 10:53:00,69.0,55.0,30.20,NE,49,0.0,-999.0,60,-99.99,,,-99.99,,2013-05-25 15:53:00,
2013-05-25 11:03:00,70.0,54.0,30.20,NNE,26,2.0,-999.0,56,-99.99,,,-99.99,,2013-05-25 16:03:00,
2013-05-25 11:12:00,70.0,54.0,30.20,NNE,26,2.0,-999.0,56,-99.99,,,-99.99,,2013-05-25 16:12:00,
2013-05-25 11:23:00,70.0,54.0,30.19,ENE,72,2.0,-999.0,57,-99.99,,,-99.99,,2013-05-25 16:23:00,
2013-05-25 11:32:00,72.0,56.0,30.19,North,351,1.0,-999.0,57,-99.99,,,-99.99,,2013-05-25 16:32:00,
2013-05-25 11:42:00,72.0,56.0,30.19,North,351,1.0,-999.0,57,-99.99,,,-99.99,,2013-05-25 16:42:00,
2013-05-25 11:52:00,73.0,55.0,30.19,SE,132,2.0,-999.0,54,-99.99,,,-99.99,,2013-05-25 16:52:00,
2013-05-25 12:02:00,74.0,56.0,30.19,ENE,72,1.0,-999.0,53,-99.99,,,-99.99,,2013-05-25 17:02:00,
2013-05-25 12:11:00,74.0,56.0,30.19,ENE,72,1.0,-999.0,53,-99.99,,,-99.99,,2013-05-25 17:11:00,
2013-05-25 12:22:00,74.0,56.0,30.19,NE,39,2.0,-999.0,53,-99.99,,,-99.99,,2013-05-25 17:22:00,
2013-05-25 12:32:00,74.0,55.0,30.19,NE,56,2.0,-999.0,52,-99.99,,,-99.99,,2013-05-25 17:32:00,
2013-05-25 12:42:00,74.0,55.0,30.19,NE,56,2.0,-999.0,52,-99.99,,,-99.99,,2013-05-25 17:42:00,
2013-05-25 12:52:00,75.0,57.0,30.18,ENE,61,2.0,-999.0,53,-99.99,,,-99.99,,2013-05-25 17:52:00,
2013-05-25 13:01:00,75.0,56.0,30.17,NE,50,2.0,-999.0,51,-99.99,,,-99.99,,2013-05-25 18:01:00,
2013-05-25 13:11:00,75.0,56.0,30.17,NE,50,2.0,-999.0,51,-99.99,,,-99.99,,2013-05-25 18:11:00,
2013-05-25 13:21:00,76.0,57.0,30.17,ENE,64,0.0,-999.0,52,-99.99,,,-99.99,,2013-05-25 18:21:00,
2013-05-25 13:32:00,77.0,59.0,30.16,NNE,17,1.0,-999.0,53,-99.99,,,-99.99,,2013-05-25 18:32:00,
2013-05-25 13:42:00,77.0,59.0,30.16,NNE,17,1.0,-999.0,53,-99.99,,,-99.99,,2013-05-25 18:42:00,
2013-05-25 13:52:00,77.0,58.0,30.15,ENE,70,2.0,-999.0,52,-99.99,,,-99.99,,2013-05-25 18:52:00,
2013-05-25 14:01:00,77.0,59.0,30.15,NE,49,4.0,-999.0,54,-99.99,,,-99.99,,2013-05-25 19:01:00,
2013-05-25 14:11:00,77.0,59.0,30.15,NE,49,4.0,-999.0,54,-99.99,,,-99.99,,2013-05-25 19:11:00,
2013-05-25 14:21:00,78.0,60.0,30.15,ENE,57,2.0,-999.0,54,-99.99,,,-99.99,,2013-05-25 19:21:00,
2013-05-25 14:32:00,78.0,59.0,30.15,NNE,22,3.0,-999.0,52,-99.99,,,-99.99,,2013-05-25 19:32:00,
2013-05-25 14:42:00,78.0,59.0,30.15,NNE,22,3.0,-999.0,52,-99.99,,,-99.99,,2013-05-25 19:42:00,
2013-05-25 14:52:00,79.0,60.0,30.15,ENE,60,1.0,-999.0,52,-99.99,,,-99.99,,2013-05-25 19:52:00,
2013-05-25 15:02:00,79.0,60.0,30.15,NNE,26,2.0,-999.0,53,-99.99,,,-99.99,,2013-05-25 20:02:00,
2013-05-25 15:11:00,79.0,60.0,30.15,NNE,26,2.0,-999.0,53,-99.99,,,-99.99,,2013-05-25 20:11:00,
2013-05-25 15:21:00,79.0,61.0,30.15,NNE,13,3.0,-999.0,54,-99.99,,,-99.99,,2013-05-25 20:21:00,
2013-05-25 15:32:00,79.0,60.0,30.14,SE,126,2.0,-999.0,52,-99.99,,,-99.99,,2013-05-25 20:32:00,
2013-05-25 15:42:00,79.0,60.0,30.14,SE,126,2.0,-999.0,52,-99.99,,,-99.99,,2013-05-25 20:42:00,
2013-05-25 15:52:00,80.0,61.0,30.14,ENE,70,2.0,-999.0,52,-99.99,,,-99.99,,2013-05-25 20:52:00,
2013-05-25 16:02:00,80.0,61.0,30.13,North,5,1.0,-999.0,52,-99.99,,,-99.99,,2013-05-25 21:02:00,
2013-05-25 16:11:00,80.0,61.0,30.13,North,5,1.0,-999.0,52,-99.99,,,-99.99,,2013-05-25 21:11:00,
2013-05-25 16:21:00,80.0,61.0,30.12,North,351,1.0,-999.0,52,-99.99,,,-99.99,,2013-05-25 21:21:00,
2013-05-25 16:33:00,80.0,62.0,30.12,NE,51,1.0,-999.0,54,-99.99,,,-99.99,,2013-05-25 21:33:00,
2013-05-25 16:43:00,80.0,62.0,30.12,NE,51,1.0,-999.0,54,-99.99,,,-99.99,,2013-05-25 21:43:00,
2013-05-25 16:53:00,80.0,63.0,30.11,ENE,59,2.0,-999.0,56,-99.99,,,-99.99,,2013-05-25 21:53:00,
2013-05-25 17:03:00,81.0,62.0,30.10,ENE,58,1.0,-999.0,53,-99.99,,,-99.99,,2013-05-25 22:03:00,
2013-05-25 17:12:00,81.0,62.0,30.10,ENE,58,1.0,-999.0,53,-99.99,,,-99.99,,2013-05-25 22:12:00,
2013-05-25 17:22:00,81.0,62.0,30.09,NNW,339,1.0,-999.0,52,-99.99,,,-99.99,,2013-05-25 22:22:00,
2013-05-25 17:32:00,81.0,62.0,30.09,NE,52,2.0,-999.0,53,-99.99,,,-99.99,,2013-05-25 22:32:00,
2013-05-25 17:42:00,81.0,62.0,30.09,NE,52,2.0,-999.0,53,-99.99,,,-99.99,,2013-05-25 22:42:00,
2013-05-25 17:52:00,81.0,62.0,30.09,ESE,104,3.0,-999.0,53,-99.99,,,-99.99,,2013-05-25 22:52:00,
2013-05-25 18:02:00,81.0,63.0,30.09,ENE,61,0.0,-999.0,54,-99.99,,,-99.99,,2013-05-25 23:02:00,
2013-05-25 18:12:00,81.0,63.0,30.09,ENE,61,0.0,-999.0,54,-99.99,,,-99.99,,2013-05-25 23:12:00,
2013-05-25 18:22:00,81.0,63.0,30.09,NE,35,1.0,-999.0,55,-99.99,,,-99.99,,2013-05-25 23:22:00,
2013-05-25 18:32:00,81.0,63.0,30.08,NE,34,0.0,-999.0,55,-99.99,,,-99.99,,2013-05-25 23:32:00,
2013-05-25 18:42:00,81.0,63.0,30.08,NE,34,0.0,-999.0,55,-99.99,,,-99.99,,2013-05-25 23:42:00,
2013-05-25 18:52:00,81.0,63.0,30.07,ENE,65,1.0,-999.0,54,-99.99,,,-99.99,,2013-05-25 23:52:00,
2013-05-25 19:01:00,80.0,62.0,30.06,ENE,65,0.0,-999.0,55,-99.99,,,-99.99,,2013-05-26 00:01:00,
2013-05-25 19:11:00,80.0,62.0,30.06,ENE,65,0.0,-999.0,55,-99.99,,,-99.99,,2013-05-26 00:11:00,
2013-05-25 19:21:00,79.0,62.0,30.05,NE,56,1.0,-999.0,57,-99.99,,,-99.99,,2013-05-26 00:21:00,
2013-05-25 19:31:00,78.0,63.0,30.05,NNE,26,2.0,-999.0,60,-99.99,,,-99.99,,2013-05-26 00:31:00,
2013-05-25 19:42:00,78.0,63.0,30.05,NNE,26,2.0,-999.0,60,-99.99,,,-99.99,,2013-05-26 00:42:00,
2013-05-25 19:52:00,78.0,63.0,30.05,NE,38,0.0,-999.0,60,-99.99,,,-99.99,,2013-05-26 00:52:00,
2013-05-25 20:01:00,77.0,63.0,30.06,NE,38,0.0,-999.0,61,-99.99,,,-99.99,,2013-05-26 01:01:00,
2013-05-25 20:11:00,77.0,63.0,30.06,NE,38,0.0,-999.0,61,-99.99,,,-99.99,,2013-05-26 01:11:00,
2013-05-25 20:21:00,76.0,63.0,30.06,NE,38,0.0,-999.0,64,-99.99,,,-99.99,,2013-05-26 01:21:00,
2013-05-25 20:32:00,75.0,64.0,30.06,NE,38,0.0,-999.0,68,-99.99,,,-99.99,,2013-05-26 01:32:00,
2013-05-25 20:42:00,75.0,64.0,30.06,NE,38,0.0,-999.0,68,-99.99,,,-99.99,,2013-05-26 01:42:00,
2013-05-25 20:52:00,73.0,63.0,30.06,NE,38,0.0,-999.0,70,-99.99,,,-99.99,,2013-05-26 01:52:00,
2013-05-25 21:02:00,72.0,62.0,30.06,NE,38,0.0,-999.0,72,-99.99,,,-99.99,,2013-05-26 02:02:00,
2013-05-25 21:11:00,72.0,62.0,30.06,NE,38,0.0,-999.0,72,-99.99,,,-99.99,,2013-05-26 02:11:00,
2013-05-25 21:21:00,71.0,62.0,30.07,NE,38,0.0,-999.0,73,-99.99,,,-99.99,,2013-05-26 02:21:00,
2013-05-25 21:32:00,70.0,62.0,30.07,NE,38,0.0,-999.0,75,-99.99,,,-99.99,,2013-05-26 02:32:00,
2013-05-25 21:42:00,70.0,62.0,30.07,NE,38,0.0,-999.0,75,-99.99,,,-99.99,,2013-05-26 02:42:00,
2013-05-25 21:52:00,69.0,61.0,30.07,NE,38,0.0,-999.0,77,-99.99,,,-99.99,,2013-05-26 02:52:00,
2013-05-25 22:01:00,68.0,61.0,30.07,NE,38,0.0,-999.0,78,-99.99,,,-99.99,,2013-05-26 03:01:00,
2013-05-25 22:11:00,68.0,61.0,30.07,NE,38,0.0,-999.0,78,-99.99,,,-99.99,,2013-05-26 03:11:00,
2013-05-25 22:21:00,68.0,62.0,30.07,NE,38,0.0,-999.0,80,-99.99,,,-99.99,,2013-05-26 03:21:00,
2013-05-25 22:33:00,67.0,61.0,30.07,NE,36,0.0,-999.0,80,-99.99,,,-99.99,,2013-05-26 03:33:00,
2013-05-25 22:42:00,67.0,61.0,30.07,NE,36,0.0,-999.0,80,-99.99,,,-99.99,,2013-05-26 03:42:00,
2013-05-25 22:53:00,66.0,60.0,30.08,NE,36,0.0,-999.0,81,-99.99,,,-99.99,,2013-05-26 03:53:00,
2013-05-25 23:02:00,66.0,60.0,30.07,NE,36,0.0,-999.0,80,-99.99,,,-99.99,,2013-05-26 04:02:00,
2013-05-25 23:12:00,66.0,60.0,30.07,NE,36,0.0,-999.0,80,-99.99,,,-99.99,,2013-05-26 04:12:00,
2013-05-25 23:23:00,66.0,59.0,30.07,NE,34,0.0,-999.0,79,-99.99,,,-99.99,,2013-05-26 04:23:00,
2013-05-25 23:33:00,67.0,60.0,30.07,NE,34,0.0,-999.0,78,-99.99,,,-99.99,,2013-05-26 04:33:00,
2013-05-25 23:42:00,67.0,60.0,30.07,NE,34,0.0,-999.0,78,-99.99,,,-99.99,,2013-05-26 04:42:00,
2013-05-25 23:52:00,66.0,59.0,30.08,NE,34,0.0,-999.0,78,-99.99,,,-99.99,,2013-05-26 04:52:00,